BOE1Z EHAM-EKCH

Flight info

Callsign BOE1Z
Flight time 1h 1m
Altitude 35000
Route ANDIK M105 OPWOT Z612 WSN L23 HAM P605 GESKA Z711 MONAK
Aircraft B744/H-SDE3FGHIM1M2RWXY/LB1

Departure

Time 2026-05-04 17:51
Airport Amsterdam Airport Schiphol (EHAM)

Arrival

Time 2026-05-04 18:52
Airport Copenhagen Kastrup Airport (EKCH)
Time Latitude Longitude Altitude Speed Heading
2026-05-04 17:15 52.30547 4.74379 -6 ft 0 kts 93°
2026-05-04 17:29 52.30542 4.74341 -6 ft 2 kts 55°
2026-05-04 17:29 52.30503 4.74315 -6 ft 2 kts 359°
2026-05-04 17:30 52.30486 4.74315 -6 ft 0 kts
2026-05-04 17:33 52.30514 4.74315 -6 ft 6 kts 342°
2026-05-04 17:34 52.30889 4.74232 -2 ft 19 kts
2026-05-04 17:34 52.31010 4.74243 0 ft 15 kts
2026-05-04 17:35 52.31290 4.74266 0 ft 13 kts
2026-05-04 17:35 52.31520 4.74295 -2 ft 20 kts
2026-05-04 17:35 52.31671 4.74308 -3 ft 23 kts
2026-05-04 17:36 52.31831 4.74342 -3 ft 21 kts
2026-05-04 17:36 52.31912 4.74379 -4 ft 0 kts 26°
2026-05-04 17:40 52.31913 4.74380 -4 ft 2 kts 26°
2026-05-04 17:41 52.31981 4.74387 -4 ft 15 kts 344°
2026-05-04 17:41 52.32025 4.74284 -3 ft 10 kts 271°
2026-05-04 17:41 52.32029 4.74176 -3 ft 8 kts 274°
2026-05-04 17:41 52.32032 4.74087 -3 ft 7 kts 274°
2026-05-04 17:42 52.32041 4.73951 -3 ft 18 kts 275°
2026-05-04 17:42 52.32053 4.73708 0 ft 21 kts 274°
2026-05-04 17:42 52.32058 4.73477 0 ft 19 kts 274°
2026-05-04 17:42 52.32126 4.73296 -1 ft 20 kts 320°
2026-05-04 17:43 52.32241 4.73139 -3 ft 23 kts 319°
2026-05-04 17:43 52.32367 4.72962 -3 ft 24 kts 321°
2026-05-04 17:43 52.32499 4.72777 -2 ft 25 kts 318°
2026-05-04 17:43 52.32638 4.72592 0 ft 25 kts 322°
2026-05-04 17:44 52.32739 4.72401 0 ft 20 kts 313°
2026-05-04 17:44 52.32832 4.72236 0 ft 18 kts 314°
2026-05-04 17:44 52.32916 4.72089 0 ft 16 kts 312°
2026-05-04 17:44 52.32991 4.71950 -2 ft 15 kts 308°
2026-05-04 17:45 52.33059 4.71822 -3 ft 14 kts 313°
2026-05-04 17:45 52.33120 4.71714 -3 ft 12 kts 314°
2026-05-04 17:45 52.33138 4.71643 -3 ft 4 kts 283°
2026-05-04 17:45 52.33143 4.71607 -3 ft 2 kts 283°
2026-05-04 17:46 52.33145 4.71593 -3 ft 0 kts 283°
2026-05-04 17:46 52.33145 4.71592 -3 ft 0 kts 283°
2026-05-04 17:47 52.33145 4.71591 -3 ft 0 kts 283°
2026-05-04 17:47 52.33130 4.71490 -3 ft 19 kts 238°
2026-05-04 17:47 52.32999 4.71290 -3 ft 27 kts 222°
2026-05-04 17:48 52.32903 4.71155 -3 ft 10 kts 220°
2026-05-04 17:48 52.32868 4.71082 -3 ft 5 kts 256°
2026-05-04 17:48 52.32868 4.71080 -3 ft 0 kts 257°
2026-05-04 17:49 52.32867 4.71076 -3 ft 2 kts 257°
2026-05-04 17:49 52.32861 4.71030 -3 ft 4 kts 257°
2026-05-04 17:49 52.32877 4.70952 -3 ft 10 kts 315°
2026-05-04 17:50 52.33051 4.70905 -3 ft 48 kts
2026-05-04 17:50 52.33567 4.70955 -3 ft 100 kts
2026-05-04 17:50 52.34506 4.71033 -1 ft 177 kts
2026-05-04 17:50 52.35810 4.71123 421 ft 181 kts
2026-05-04 17:51 52.37026 4.71187 735 ft 187 kts
2026-05-04 17:51 52.38328 4.71276 956 ft 186 kts
2026-05-04 17:51 52.39622 4.71449 1486 ft 194 kts
2026-05-04 17:51 52.40980 4.71575 2144 ft 200 kts
2026-05-04 17:52 52.42403 4.71744 2652 ft 216 kts
2026-05-04 17:52 52.43993 4.71943 3098 ft 238 kts
2026-05-04 17:52 52.45626 4.72097 3994 ft 239 kts
2026-05-04 17:52 52.47268 4.72272 4837 ft 242 kts
2026-05-04 17:53 52.48945 4.72440 5529 ft 242 kts
2026-05-04 17:53 52.50613 4.72597 5772 ft 240 kts
2026-05-04 17:53 52.52291 4.72753 5885 ft 239 kts
2026-05-04 17:53 52.53899 4.73406 5894 ft 239 kts 26°
2026-05-04 17:54 52.55210 4.75083 5908 ft 242 kts 50°
2026-05-04 17:54 52.56004 4.77510 5932 ft 244 kts 73°
2026-05-04 17:54 52.56387 4.80226 5968 ft 245 kts 76°
2026-05-04 17:54 52.56786 4.82978 5990 ft 244 kts 74°
2026-05-04 17:55 52.57211 4.85660 6005 ft 244 kts 74°
2026-05-04 17:55 52.57637 4.88359 6012 ft 250 kts 74°
2026-05-04 17:55 52.58084 4.91177 6027 ft 258 kts 74°
2026-05-04 17:55 52.58535 4.94068 6047 ft 262 kts 74°
2026-05-04 17:56 52.59002 4.96957 6047 ft 263 kts 69°
2026-05-04 17:56 52.59872 4.99566 6015 ft 262 kts 48°
2026-05-04 17:56 52.61147 5.01766 6026 ft 261 kts 44°
2026-05-04 17:56 52.62376 5.03951 6030 ft 263 kts 47°
2026-05-04 17:57 52.63603 5.06264 6046 ft 270 kts 47°
2026-05-04 17:57 52.64799 5.08622 6369 ft 272 kts 50°
2026-05-04 17:57 52.66008 5.11065 6989 ft 277 kts 49°
2026-05-04 17:57 52.67245 5.13535 7660 ft 283 kts 49°
2026-05-04 17:58 52.68487 5.16026 8372 ft 286 kts 49°
2026-05-04 17:58 52.69751 5.18567 9152 ft 291 kts 49°
2026-05-04 17:58 52.71032 5.21148 9945 ft 296 kts 49°
2026-05-04 17:58 52.72339 5.23792 10753 ft 304 kts 49°
2026-05-04 17:59 52.73691 5.26599 11650 ft 326 kts 54°
2026-05-04 17:59 52.74701 5.29926 12548 ft 332 kts 70°
2026-05-04 17:59 52.76181 5.37110 14000 ft 334 kts 70°
2026-05-04 18:00 52.76949 5.40719 14643 ft 337 kts 70°
2026-05-04 18:00 52.77731 5.44394 15240 ft 341 kts 70°
2026-05-04 18:00 52.78520 5.48101 15789 ft 346 kts 70°
2026-05-04 18:00 52.79323 5.51875 16276 ft 353 kts 70°
2026-05-04 18:01 52.80140 5.55707 16704 ft 361 kts 70°
2026-05-04 18:01 52.80981 5.59654 17059 ft 370 kts 70°
2026-05-04 18:01 52.81837 5.63676 17531 ft 375 kts 70°
2026-05-04 18:02 52.83577 5.71854 18585 ft 381 kts 71°
2026-05-04 18:02 52.84453 5.75984 19089 ft 384 kts 71°
2026-05-04 18:02 52.85349 5.80206 19535 ft 389 kts 71°
2026-05-04 18:02 52.86250 5.84464 20009 ft 392 kts 71°
2026-05-04 18:03 52.87157 5.88772 20519 ft 404 kts 71°
2026-05-04 18:03 52.88079 5.93154 21398 ft 408 kts 71°
2026-05-04 18:03 52.89009 5.97600 22144 ft 414 kts 71°
2026-05-04 18:03 52.89952 6.02094 22944 ft 419 kts 71°
2026-05-04 18:04 52.90917 6.06709 23635 ft 426 kts 71°
2026-05-04 18:04 52.91884 6.11353 24367 ft 430 kts 71°
2026-05-04 18:04 52.93860 6.20767 25723 ft 441 kts 71°
2026-05-04 18:05 52.94848 6.25526 26358 ft 446 kts 72°
2026-05-04 18:05 52.95850 6.30393 27032 ft 449 kts 73°
2026-05-04 18:05 52.96869 6.35321 27628 ft 454 kts 73°
2026-05-04 18:05 52.97878 6.40271 28233 ft 458 kts 73°
2026-05-04 18:06 52.99940 6.50337 29384 ft 465 kts 74°
2026-05-04 18:06 53.00967 6.55392 29952 ft 468 kts 74°
2026-05-04 18:06 53.02009 6.60530 30399 ft 473 kts 74°
2026-05-04 18:07 53.03051 6.65717 30589 ft 484 kts 75°
2026-05-04 18:07 53.04131 6.71111 30513 ft 501 kts 75°
2026-05-04 18:07 53.05232 6.76603 30627 ft 511 kts 75°
2026-05-04 18:07 53.06358 6.82241 30920 ft 517 kts 75°
2026-05-04 18:08 53.07490 6.87885 31201 ft 523 kts 74°
2026-05-04 18:08 53.08643 6.93670 31482 ft 529 kts 74°
2026-05-04 18:08 53.09802 6.99496 31765 ft 533 kts 74°
2026-05-04 18:08 53.10968 7.05323 32038 ft 536 kts 74°
2026-05-04 18:09 53.13292 7.17070 32554 ft 537 kts 74°
2026-05-04 18:09 53.15604 7.28831 32985 ft 538 kts 73°
2026-05-04 18:10 53.16759 7.34717 33178 ft 539 kts 73°
2026-05-04 18:10 53.17926 7.40699 33365 ft 540 kts 73°
2026-05-04 18:10 53.19068 7.46574 33542 ft 542 kts 73°
2026-05-04 18:10 53.20232 7.52555 33712 ft 542 kts 73°
2026-05-04 18:11 53.21372 7.58493 33865 ft 543 kts 73°
2026-05-04 18:11 53.22541 7.64540 34011 ft 543 kts 73°
2026-05-04 18:11 53.23691 7.70517 34140 ft 544 kts 74°
2026-05-04 18:11 53.24839 7.76489 34267 ft 546 kts 74°
2026-05-04 18:12 53.25994 7.82547 34416 ft 548 kts 74°
2026-05-04 18:12 53.27146 7.88565 34568 ft 549 kts 74°
2026-05-04 18:12 53.28284 7.94589 34725 ft 548 kts 73°
2026-05-04 18:12 53.29425 8.00636 34861 ft 548 kts 73°
2026-05-04 18:13 53.31717 8.12794 34957 ft 554 kts 73°
2026-05-04 18:14 53.35157 8.31152 34967 ft 554 kts 73°
2026-05-04 18:14 53.37427 8.43450 34960 ft 553 kts 73°
2026-05-04 18:15 53.41925 8.67989 34964 ft 555 kts 74°
2026-05-04 18:16 53.44173 8.80377 34963 ft 555 kts 73°
2026-05-04 18:16 53.46395 8.92715 34970 ft 555 kts 73°
2026-05-04 18:17 53.49706 9.11207 34977 ft 555 kts 73°
2026-05-04 18:18 53.52987 9.29761 34976 ft 556 kts 73°
2026-05-04 18:18 53.55172 9.42247 34977 ft 556 kts 73°
2026-05-04 18:19 53.58404 9.60804 34977 ft 555 kts 73°
2026-05-04 18:19 53.60565 9.73255 34965 ft 555 kts 73°
2026-05-04 18:20 53.62695 9.85757 34972 ft 556 kts 74°
2026-05-04 18:20 53.64763 9.97950 34664 ft 527 kts 74°
2026-05-04 18:21 53.65755 10.03776 34120 ft 516 kts 73°
2026-05-04 18:21 53.66758 10.09670 33874 ft 529 kts 74°
2026-05-04 18:21 53.67744 10.15543 33703 ft 521 kts 74°
2026-05-04 18:21 53.68700 10.21399 33462 ft 514 kts 75°
2026-05-04 18:22 53.69794 10.27039 33142 ft 508 kts 65°
2026-05-04 18:22 53.71510 10.32239 32851 ft 501 kts 52°
2026-05-04 18:22 53.73828 10.36529 32570 ft 494 kts 35°
2026-05-04 18:22 53.76627 10.39648 32333 ft 488 kts 25°
2026-05-04 18:23 53.79509 10.42790 32083 ft 494 kts 33°
2026-05-04 18:23 53.82137 10.46505 31857 ft 496 kts 38°
2026-05-04 18:23 53.84659 10.50554 31593 ft 497 kts 42°
2026-05-04 18:23 53.87047 10.54662 31332 ft 498 kts 42°
2026-05-04 18:24 53.89511 10.58822 31076 ft 502 kts 41°
2026-05-04 18:24 53.91990 10.63074 30863 ft 513 kts 42°
2026-05-04 18:24 53.94465 10.67443 30675 ft 520 kts 44°
2026-05-04 18:24 53.96936 10.71892 30485 ft 517 kts 44°
2026-05-04 18:25 53.99337 10.76236 30245 ft 495 kts 44°
2026-05-04 18:25 54.01635 10.80417 29881 ft 475 kts 44°
2026-05-04 18:25 54.03873 10.84465 29508 ft 466 kts 44°
2026-05-04 18:25 54.06034 10.88401 29032 ft 456 kts 44°
2026-05-04 18:26 54.08172 10.92308 28376 ft 451 kts 44°
2026-05-04 18:26 54.10354 10.96358 28057 ft 482 kts 45°
2026-05-04 18:26 54.12640 11.00653 28037 ft 504 kts 44°
2026-05-04 18:26 54.15049 11.05043 28057 ft 513 kts 44°
2026-05-04 18:27 54.17501 11.09595 28065 ft 534 kts 45°
2026-05-04 18:27 54.20039 11.14322 28070 ft 546 kts 45°
2026-05-04 18:27 54.25203 11.23938 28009 ft 550 kts 44°
2026-05-04 18:28 54.27767 11.28760 27990 ft 549 kts 45°
2026-05-04 18:28 54.30325 11.33516 27978 ft 548 kts 44°
2026-05-04 18:28 54.32853 11.38295 27950 ft 528 kts 45°
2026-05-04 18:28 54.35230 11.42794 27827 ft 499 kts 44°
2026-05-04 18:29 54.37468 11.47100 27590 ft 475 kts 45°
2026-05-04 18:29 54.39677 11.51248 27333 ft 466 kts 43°
2026-05-04 18:29 54.41854 11.55288 27130 ft 459 kts 44°
2026-05-04 18:29 54.43981 11.59308 26969 ft 454 kts 44°
2026-05-04 18:30 54.48179 11.67388 26390 ft 458 kts 44°
2026-05-04 18:30 54.50332 11.71373 25932 ft 455 kts 44°
2026-05-04 18:30 54.52440 11.75374 25408 ft 443 kts 44°
2026-05-04 18:31 54.54524 11.79306 24866 ft 442 kts 44°
2026-05-04 18:31 54.56545 11.83139 24342 ft 432 kts 45°
2026-05-04 18:31 54.58548 11.86982 23795 ft 430 kts 45°
2026-05-04 18:31 54.60542 11.90841 23289 ft 428 kts 45°
2026-05-04 18:32 54.62618 11.94245 22729 ft 415 kts 31°
2026-05-04 18:32 54.65028 11.96938 22236 ft 411 kts 28°
2026-05-04 18:32 54.67396 11.99638 21749 ft 408 kts 30°
2026-05-04 18:32 54.68951 12.01451 21428 ft 407 kts 30°
2026-05-04 18:33 54.72070 12.05045 20773 ft 397 kts 30°
2026-05-04 18:33 54.74294 12.07632 20248 ft 386 kts 30°
2026-05-04 18:33 54.76519 12.10205 19717 ft 386 kts 30°
2026-05-04 18:33 54.78721 12.12763 19215 ft 377 kts 30°
2026-05-04 18:34 54.80875 12.15273 18705 ft 376 kts 30°
2026-05-04 18:34 54.83031 12.17768 18198 ft 371 kts 30°
2026-05-04 18:34 54.84469 12.19433 17858 ft 370 kts 30°
2026-05-04 18:34 54.87285 12.22719 17178 ft 366 kts 30°
2026-05-04 18:35 54.89362 12.25161 16687 ft 363 kts 30°
2026-05-04 18:35 54.91419 12.27595 16189 ft 361 kts 30°
2026-05-04 18:35 54.93473 12.30040 15656 ft 353 kts 30°
2026-05-04 18:35 54.95467 12.32438 15118 ft 344 kts 30°
2026-05-04 18:36 54.97422 12.34691 14662 ft 334 kts 28°
2026-05-04 18:36 54.99304 12.36898 14194 ft 326 kts 30°
2026-05-04 18:36 55.01176 12.39113 13734 ft 325 kts 28°
2026-05-04 18:36 55.03042 12.41243 13302 ft 322 kts 28°
2026-05-04 18:37 55.04910 12.43411 12857 ft 322 kts 29°
2026-05-04 18:37 55.06762 12.45565 12420 ft 321 kts 29°
2026-05-04 18:37 55.08593 12.47701 11977 ft 319 kts 29°
2026-05-04 18:37 55.10411 12.49827 11531 ft 313 kts 29°
2026-05-04 18:38 55.12231 12.51945 11082 ft 315 kts 29°
2026-05-04 18:38 55.14029 12.54043 10644 ft 311 kts 29°
2026-05-04 18:38 55.15788 12.56111 10186 ft 305 kts 29°
2026-05-04 18:38 55.17556 12.58190 9742 ft 304 kts 29°
2026-05-04 18:39 55.19280 12.60226 9305 ft 303 kts 29°
2026-05-04 18:39 55.21013 12.62289 8850 ft 297 kts 30°
2026-05-04 18:39 55.22722 12.64333 8396 ft 295 kts 28°
2026-05-04 18:39 55.24562 12.65756 7901 ft 286 kts 13°
2026-05-04 18:40 55.26454 12.66751 7475 ft 286 kts 13°
2026-05-04 18:40 55.28304 12.67800 7030 ft 280 kts 14°
2026-05-04 18:40 55.30120 12.68830 6724 ft 265 kts 14°
2026-05-04 18:40 55.31836 12.69820 6315 ft 256 kts 14°
2026-05-04 18:41 55.33519 12.70785 5771 ft 253 kts 14°
2026-05-04 18:41 55.35167 12.71738 5299 ft 254 kts 14°
2026-05-04 18:41 55.36851 12.72727 5104 ft 252 kts 14°
2026-05-04 18:41 55.38552 12.73689 4699 ft 260 kts 14°
2026-05-04 18:42 55.40252 12.74659 4399 ft 261 kts 14°
2026-05-04 18:42 55.41972 12.75648 4193 ft 261 kts 14°
2026-05-04 18:42 55.43697 12.76634 4095 ft 261 kts 15°
2026-05-04 18:42 55.45428 12.77631 4033 ft 261 kts 15°
2026-05-04 18:43 55.47146 12.78623 4000 ft 261 kts 15°
2026-05-04 18:43 55.48864 12.79618 3973 ft 262 kts 15°
2026-05-04 18:43 55.50602 12.80617 3966 ft 262 kts 14°
2026-05-04 18:43 55.52359 12.81630 3974 ft 263 kts 14°
2026-05-04 18:44 55.54077 12.82614 3988 ft 263 kts 14°
2026-05-04 18:44 55.54667 12.82954 3987 ft 263 kts 14°
2026-05-04 18:44 55.57538 12.84832 3986 ft 260 kts 19°
2026-05-04 18:44 55.59134 12.86013 3935 ft 243 kts 18°
2026-05-04 18:45 55.60665 12.87115 3914 ft 235 kts 18°
2026-05-04 18:45 55.62184 12.88218 3916 ft 234 kts 19°
2026-05-04 18:45 55.63651 12.89404 3908 ft 233 kts 21°
2026-05-04 18:45 55.65110 12.90577 3932 ft 233 kts 20°
2026-05-04 18:46 55.66596 12.91780 3980 ft 233 kts 20°
2026-05-04 18:46 55.68064 12.92969 4019 ft 234 kts 20°
2026-05-04 18:46 55.69550 12.94169 4028 ft 234 kts 20°
2026-05-04 18:46 55.71032 12.95368 4024 ft 235 kts 20°
2026-05-04 18:47 55.72535 12.96539 4020 ft 234 kts 12°
2026-05-04 18:47 55.74081 12.96686 3991 ft 223 kts 341°
2026-05-04 18:47 55.75405 12.95376 3865 ft 222 kts 311°
2026-05-04 18:47 55.76128 12.93004 3505 ft 222 kts 281°
2026-05-04 18:48 55.76023 12.90301 3207 ft 220 kts 257°
2026-05-04 18:48 55.75560 12.87727 3083 ft 216 kts 255°
2026-05-04 18:48 55.75081 12.85228 3011 ft 215 kts 247°
2026-05-04 18:48 55.74498 12.83790 2966 ft 218 kts 224°
2026-05-04 18:49 55.72823 12.82227 3060 ft 192 kts 211°
2026-05-04 18:49 55.71741 12.81000 2822 ft 179 kts 225°
2026-05-04 18:49 55.70822 12.79594 2797 ft 167 kts 227°
2026-05-04 18:49 55.69978 12.78304 2975 ft 160 kts 226°
2026-05-04 18:50 55.69147 12.77014 2975 ft 154 kts 226°
2026-05-04 18:50 55.68315 12.75769 2401 ft 164 kts 225°
2026-05-04 18:50 55.67446 12.74462 1898 ft 165 kts 227°
2026-05-04 18:50 55.66610 12.73075 1475 ft 162 kts 229°
2026-05-04 18:51 55.65791 12.71740 1067 ft 161 kts 226°
2026-05-04 18:51 55.64954 12.70454 704 ft 158 kts 224°
2026-05-04 18:51 55.64146 12.69256 376 ft 148 kts 224°
2026-05-04 18:51 55.63359 12.68065 185 ft 146 kts 226°
2026-05-04 18:52 55.62613 12.66890 61 ft 144 kts 226°
2026-05-04 18:52 55.61905 12.65778 17 ft 125 kts 225°
2026-05-04 18:52 55.61604 12.65126 19 ft 29 kts 276°
2026-05-04 18:52 55.61690 12.64871 19 ft 11 kts 320°
2026-05-04 18:53 55.61729 12.64821 19 ft 1 kts 333°
2026-05-04 18:53 55.61756 12.64800 19 ft 10 kts 343°
2026-05-04 18:53 55.61847 12.64784 19 ft 11 kts 23°
2026-05-04 18:53 55.61908 12.64833 19 ft 0 kts 32°
2026-05-04 18:56 55.61909 12.64833 19 ft 0 kts 32°
2026-05-04 18:56 55.61920 12.64846 19 ft 3 kts 32°
2026-05-04 18:56 55.61968 12.64902 19 ft 10 kts 33°
2026-05-04 18:57 55.62051 12.64995 19 ft 15 kts 33°
2026-05-04 18:57 55.62101 12.65057 19 ft 0 kts 34°
2026-05-04 18:58 55.62145 12.65110 19 ft 14 kts 34°
2026-05-04 18:58 55.62216 12.65189 20 ft 3 kts 27°
2026-05-04 18:59 55.62258 12.65203 21 ft 12 kts 359°
2026-05-04 18:59 55.62344 12.65204 22 ft 11 kts
2026-05-04 18:59 55.62417 12.65203 22 ft 9 kts 359°
2026-05-04 18:59 55.62488 12.65198 22 ft 11 kts 346°
2026-05-04 19:00 55.62508 12.65107 22 ft 4 kts 269°
2026-05-04 19:00 55.62506 12.65062 22 ft 0 kts 269°
2026-05-04 19:00 55.62506 12.65061 22 ft 0 kts 269°